Погода Остров Диксон

Погода Остров Диксон : погода сейчас, прогноз погоды и архив. Всё, что Вы хотите узнать о погоде Остров Диксон!

Хотите узнать прогноз погоды Остров Диксон? Тогда Вам сюда: Погода Остров Диксон

Поиск расширенной информации на нашем сайте:

Полезная информация: Сделать интернет магазин новости сайт здесь

Другие новости

Новости СМИ2

Главная страница сайта

Новости сайта

02.10.2013

Напоминаем, что на нашем новом сайте вы можете получить высокодетализированные прогнозы погоды по пунктам России, СНГ и мира (включающие важные для авиации метеовеличины, такие как направление и скорость ветра, видимость, явления погоды, количество и форма облачности, нижняя и верхняя граница облачности), а также ознакомиться с разнообразными материалами по авиационной метеорологии и подборкой полезных ссылок на эту тему.

Сайт Метеоцентр.Азия посвящён разработке технологий оптимизации авиаметеорологического обслуживания, включая проектирование и перспективное создание нескольких автоматизированных авиаметеорологических систем:
- система выпуска высокодетальных прогностических карт явлений погоды для нижнего воздушного пространства по России и ближнему зарубежью;
- система верификации прогнозов TAF (выпускаемых синоптиками официальных АМСГ РФ и ближнего зарубежья) и AUTOTAF (выпускаемых сайтом Метеоцентр.Азия) - выявление ошибок, онлайн-сопоставление с фактической погодой METAR, автоматическое внесение коррективов в прогнозы при резком отклонении фактической погоды от прогноза, подсчёт оправдываемости прогнозов по элементам и в целом;
- система обработки, анализа и отображения авиаметеорологической информации для применения провайдерами метеорологической информации.

Рекомендуем: Описание купить данабол у нас на сайте.

Погода Остров Диксон - сегодня

Время (UTC), дата Ветер
(°,м/с) 
Видим.   Явления Облачность Т
(°С)
Тd
(°С)
f(%) Тe
(°С)
Pmin
(гПа)
dP
(гПа)
Po
(мм)
O2
(г/м3)
Тmin Tmax R s Состояние
почвы
06 27.03.17 200 (Ю) 7-10{12}  20000 м  позёмок{ливн. осадки, снег}  9/8 360 м средняя 
[Sc|Ac und]
-5.3 -6 95 -10  992.2  0.6  740  305           
09 27.03.17 180 (Ю) 10-13{15}  4000 м  слаб. ливневой снег  9/8 240 м кучево-дожд., средняя 
[Cb cap|Ac und]
-8.6 -9.5 93 -16  992.5  0.2  740  309           
12 27.03.17 180 (Ю) 11-14{15}  2000 м  метель{ливн. осадки}  10/0 верхняя 
[Cs]
-8.9 -9.8 93 -16  991  -1.5  739  309    -4.4  0.3     
15 27.03.17 170 (Ю) 10-15{17}  2000 м  слаб. снег  10/0 средняя 
[Ac As]
-7.7 -8.5 94 -14  990.6  -0.9  738  307           
18 27.03.17 170 (Ю) 12-16{16}  2000 м  слаб. снег  10/0 средняя 
[As op]
-5.5 -6.2 95 -12  987.3  -2.6  736  303           
21 27.03.17 170 (Ю) 12-17{18}  2000 м  слаб. снег  10/0 средняя 
[As op]
-3.9 -4.4 96 -10  984.3  -3  734  300           
00 28.03.17 180 (Ю) 12-18{18}  2000 м  снег  10/10 210 м 
[Frnb|Ns]
-3.5 -4.1 96 -10  982.5  -1.8  733  299  -9.4    0.8  32  неравномерный
сухой снег
100% 
03 28.03.17 180 (Ю) 11-15{18}  1000 м  слаб. ливневой снег  9/9 100 м кучево-дожд. 
[Cb cap]
-3.3 -3.8 96 -9  981.1  -1.4  731  299           
06 28.03.17 170 (Ю) 13-17{20}  0500 м  метель{ливн. осадки, снег}  ?/?  
-3.5 -4.1 96 -10  979.5  -1.5  730  299           
09 28.03.17 210 (ЮЗ) 11-16{17}  2000 м  метель  10/10 270 м 
[St]
-4.8 -5.6 94 -11  980.2  0.6  731  300           
12 28.03.17 200 (Ю) 11-16{21}  4000 м  метель  10/10 270 м 
[St]
-4.8 -5.8 93 -11  982.2  732  301    -3.1  0.5     
15 28.03.17 190 (Ю) 11-14{16}  2000 м  слаб. ливневой снег  9/9 180 м кучево-дожд. 
[Cb cap]
-4.7 -5.3 96 -11  983.1  0.3  733  301           
18 28.03.17 200 (Ю) 10-13{16}  4000 м  метель{ливн. осадки}  10/10 210 м 
[St]
-5 -5.6 96 -11  982.8  0.3  733  301           
21 28.03.17 200 (Ю) 8-12{14}  20000 м  позёмок  9/9 420 м 
[Sc]
-4.3 -4.9 96 -9  982.8  -0.1  733  300           
00 29.03.17 200 (Ю) 8-11{13}  4000 м  слаб. ливневой снег  9/9 180 м кучево-дожд. 
[Cb cap]
-4.7 -5.2 96 -10  983  0.3  733  301  -5.4    0.2  32  неравномерный
сухой снег
100% 
03 29.03.17 200 (Ю) 8-11{14}  4000 м  слаб. ливневой снег  9/9 240 м кучево-дожд. 
[Cb cap]
-4.3 -5 95 -9  983.8  0.8  734  301           
06 29.03.17 190 (Ю) 8-11{13}  20000 м  позёмок{ливн. осадки}  9/6 400 м средняя 
[Sc|Ac und]
-4.8 -5.4 96 -10  984.1  0.3  734  301           
09 29.03.17 190 (Ю) 8-11{11}  4000 м  слаб. ливневой снег  9/9 180 м кучево-дожд. 
[Cb cap]
-4.3 -4.9 96 -9  984.8  0.7  734  301           
12 29.03.17 180 (Ю) 8-11{12}  4000 м  слаб. ливневой снег  9/9 400 м кучево-дожд. 
[Cb cap]
-4.8 -5.4 96 -10  985.2  0.4  735  302    -4.2  0.3     
15 29.03.17 190 (Ю) 8-10{12}  20000 м  позёмок{ливн. осадки}  9/9 270 м 
[Sc]
-5.5 -6.1 96 -11  984.8  -0.4  734  303           
18 29.03.17 180 (Ю) 5{10}  20000 м  {ливн. осадки}  9/9 400 м 
[Sc]
-6 -6.7 95 -10  984.6  -0.2  734  303           
21 29.03.17 180 (Ю) 20000 м    9/9 450 м 
[Sc]
-7.4 -8.2 94 -12  984.8  0.1  734  305           
00 30.03.17 190 (Ю) 20000 м    9/9 420 м 
[Sc]
-6.9 -7.7 94 -10  985.6  0.8  735  305  -7.9    0.0  32  неравномерный
сухой снег
100% 
03 30.03.17 180 (Ю) 4000 м  слаб. ливневой снег  9/9 240 м кучево-дожд. 
[Cb cap]
-6.4 -7.2 94 -10  986.6  1.1  736  304           
06 30.03.17 200 (Ю) 4000 м  слаб. ливневой снег  10/10 210 м кучево-дожд. 
[Cb cap]
-4.4 -5 96 -9  988.3  1.7  737  302           
Время (UTC), дата Ветер
(°,м/с) 
Видим.   Явления Облачность Т
(°С)
Тd
(°С)
f(%) Тe
(°С)
Pmin
(гПа)
dP
(гПа)
Po
(мм)
O2
(г/м3)
Тmin Tmax R s Состояние
почвы

Для получения пояснительной информации подведите курсор к названию столбца.

ПОГОДА Остров Диксон - архив

Всё, что Вы хотите узнать о погоде Остров Диксон - удобно и подробно!

Выберите нужную дату (начиная с 1 января 2015* года) и нажмите кнопку "Найти".
Будут отображены архивные сводки погоды по пункту Остров Диксон, начиная с указанной даты.


Отображать данные в формате CSV (для использования в таблицах Excel)


Внимание! Наш архив погоды предназначен исключительно для личного некоммерческого использования в познавательных целях. Если Вам необходимы официальные справки о состоянии погоды (для производственных, юридических, коммерческих и т.п. целей), обращайтесь в органы Росгидромета.

*Примечание: данная дата относится к архиву по метеостанциям СССР (Россия, СНГ, Балтия).
Архив по метеостанциям Зарубежной Европы и Азии (кроме Китая) хранится 10 дней, по другим регионам земного шара (Китай, Африка, Америка, Австралия, Океания) - 1 день.

Остров Диксон - район местоположения метеостанции


Название, широта, долгота, высота метеостанции:
Остров Диксон 73.5°ш. 80.4°д. 47 м над ур. моря [Российская Федерация]

Дополнительная информация

В oтличие oт бoльшинства пoгoдных сайтoв мы публикуем пoдрoбную метеoинфoрмацию в детальнoм прoфессиoнальнoм фoрмате.

Характеристики температуры и влажнoсти вoздуха измеряются на высoте 2 м в тени вдали oт зданий и деревьев.
Скoрoсть ветра измеряется на высoте 10 м (на урoвне рoста челoвека скoрoсть ветра ниже в 1.5-2 раза). Если метеoстанция нахoдится в гoрoде или в лесу, тo скoрoсть ветра занижена на 2-4 м/с пo сравнению с oткрытым местoм. Скoрoсть ветра над акватoриями крупных рек и oзёр, а также на вершинах хoлмoв на 2-5 м/с выше, чем в oбычных услoвиях.
Атмoсфернoе давление в разных тoчках местнoсти мoжет значительнo oтличаться oт давления на метеoстанции, в зависимoсти oт услoвий рельефа (при пoдъёме на 10 м давление пoнижается примернo на 1 мм рт.ст.).